^^
Saratoga-Weather Station Historical Data
Daily Summary for June 19, 2021 Units:  Metric    English   Both
Daily Weekly Monthly Yearly Custom
  High: Low: Average:
Temperature: 16.4 °C 15.8 °C 16.2 °C
Dew Point: 14.9 °C 14.7 °C 14.8 °C
Humidity: 93% 91% 92%
Wind Speed: 7.9km/h 0km/h 3km/h
Wind Gust: 9.7km/h - -
Wind- - WNW
Pressure: 1016.3 hPa 1015.9 hPa -
Precipitation: 0.0 mm    
Historical Graphs
 
 
Tabular Data for June 19, 2021
Time Temperature Dew Point Pressure Wind Wind Speed Wind Gust Humidity Rainfall Rate (Hourly) solar
00:02 16.4 °C 14.9 °C 1016.3 hPa NW 3.2 km/h 6.4 km/h 91% 0.0 mm 0 W/m2
00:07 16.4 °C 14.9 °C 1016.3 hPa West 6.4 km/h 6.4 km/h 91% 0.0 mm 0 W/m2
00:12 16.4 °C 14.9 °C 1016.3 hPa West 1.4 km/h 4.8 km/h 91% 0.0 mm 0 W/m2
00:17 16.3 °C 14.8 °C 1016.3 hPa West 3.2 km/h 6.4 km/h 91% 0.0 mm 0 W/m2
00:22 16.3 °C 14.8 °C 1016.3 hPa NW 4.7 km/h 8 km/h 91% 0.0 mm 0 W/m2
00:27 16.3 °C 14.8 °C 1016.3 hPa West 4.7 km/h 6.4 km/h 91% 0.0 mm 0 W/m2
00:32 16.3 °C 14.8 °C 1016.3 hPa WNW 3.2 km/h 9.7 km/h 91% 0.0 mm 0 W/m2
00:38 16.3 °C 14.8 °C 1016.3 hPa NNW 3.2 km/h 4.8 km/h 91% 0.0 mm 0 W/m2
00:43 16.3 °C 14.8 °C 1016.3 hPa SW 3.2 km/h 9.7 km/h 91% 0.0 mm 0 W/m2
00:48 16.3 °C 14.8 °C 1016.3 hPa WNW 1.4 km/h 4.8 km/h 91% 0.0 mm 0 W/m2
00:53 16.3 °C 14.8 °C 1016.3 hPa WNW 3.2 km/h 9.7 km/h 91% 0.0 mm 0 W/m2
00:58 16.3 °C 14.8 °C 1016.3 hPa WNW 3.2 km/h 9.7 km/h 91% 0.0 mm 0 W/m2
01:03 16.3 °C 14.8 °C 1016.3 hPa NW 3.2 km/h 6.4 km/h 91% 0.0 mm 0 W/m2
01:08 16.3 °C 14.8 °C 1016.3 hPa WNW 1.4 km/h 4.8 km/h 91% 0.0 mm 0 W/m2
01:13 16.3 °C 14.8 °C 1016.3 hPa NW 4.7 km/h 4.8 km/h 91% 0.0 mm 0 W/m2
01:18 16.3 °C 14.8 °C 1016.3 hPa NW 1.4 km/h 4.8 km/h 91% 0.0 mm 0 W/m2
01:23 16.3 °C 14.8 °C 1016.3 hPa NNW 3.2 km/h 4.8 km/h 91% 0.0 mm 0 W/m2
01:28 16.3 °C 14.8 °C 1016.3 hPa NW 1.4 km/h 4.8 km/h 91% 0.0 mm 0 W/m2
01:33 16.3 °C 14.8 °C 1016.3 hPa NW 4.7 km/h 8 km/h 91% 0.0 mm 0 W/m2
01:38 16.3 °C 14.8 °C 1016.3 hPa WNW 7.9 km/h 8 km/h 91% 0.0 mm 0 W/m2
01:43 16.2 °C 14.9 °C 1016.3 hPa WNW 4.7 km/h 6.4 km/h 92% 0.0 mm 0 W/m2
01:48 16.2 °C 14.9 °C 1016.3 hPa Calm   3.2 km/h 92% 0.0 mm 0 W/m2
01:53 16.1 °C 14.8 °C 1016.3 hPa WSW 1.4 km/h 4.8 km/h 92% 0.0 mm 0 W/m2
01:58 16 °C 14.7 °C 1016.3 hPa SSW 1.4 km/h 3.2 km/h 92% 0.0 mm 0 W/m2
02:03 15.9 °C 14.8 °C 1016.3 hPa Calm   1.6 km/h 93% 0.0 mm 0 W/m2
02:08 15.9 °C 14.8 °C 1016.3 hPa West 4.7 km/h 6.4 km/h 93% 0.0 mm 0 W/m2
02:13 15.9 °C 14.8 °C 1015.9 hPa Calm   1.6 km/h 93% 0.0 mm 0 W/m2
02:18 15.9 °C 14.8 °C 1015.9 hPa NW 6.4 km/h 6.4 km/h 93% 0.0 mm 0 W/m2
02:23 15.8 °C 14.7 °C 1015.9 hPa Calm   4.8 km/h 93% 0.0 mm 0 W/m2
02:28 15.8 °C 14.7 °C 1015.9 hPa WNW 3.2 km/h 6.4 km/h 93% 0.0 mm 0 W/m2
02:33 15.8 °C 14.7 °C 1015.9 hPa NW 1.4 km/h 3.2 km/h 93% 0.0 mm 0 W/m2
Juneau County Weather
Compliments of Weather Underground - 2 mb